TimePST,TemperatureF,Dew PointF,Humidity,Sea Level PressureIn,VisibilityMPH,Wind Direction,Wind SpeedMPH,Gust SpeedMPH,PrecipitationIn,Events,Conditions,WindDirDegrees,DateUTC
2:15 AM,-9999,-9999,N/A,-9999,-9999.0,North,-9999.0,-,N/A,,Unknown,0,2012-11-10 10:15:00
2:35 AM,-9999,-9999,N/A,-9999,-9999.0,North,-9999.0,-,N/A,,Unknown,0,2012-11-10 10:35:00
2:55 AM,-9999,-9999,N/A,29.90,-9999.0,NW,10.4,-,N/A,,Unknown,310,2012-11-10 10:55:00
3:15 AM,-9999,-9999,N/A,29.91,-9999.0,WNW,12.7,-,N/A,,Unknown,300,2012-11-10 11:15:00
4:15 AM,32.0,30.2,93,29.92,9.0,NW,10.4,-,N/A,Rain,Light Rain,310,2012-11-10 12:15:00
4:35 AM,32.0,30.2,93,29.92,8.0,NW,12.7,-,0.01,Rain,Light Rain,310,2012-11-10 12:35:00
4:55 AM,32.0,30.2,93,29.93,10.0,NW,9.2,-,0.01,Rain,Light Rain,320,2012-11-10 12:55:00
5:15 AM,32.0,28.4,87,29.93,10.0,NW,11.5,-,N/A,,Overcast,310,2012-11-10 13:15:00
5:35 AM,32.0,28.4,87,29.93,10.0,NW,13.8,18.4,N/A,,Overcast,310,2012-11-10 13:35:00
5:55 AM,32.0,28.4,87,29.94,10.0,NW,12.7,18.4,N/A,,Mostly Cloudy,310,2012-11-10 13:55:00
6:15 AM,32.0,28.4,87,29.94,10.0,NW,11.5,-,N/A,,Mostly Cloudy,310,2012-11-10 14:15:00
6:35 AM,32.0,28.4,87,29.95,10.0,NW,11.5,-,N/A,,Overcast,310,2012-11-10 14:35:00
6:55 AM,32.0,30.2,93,29.97,10.0,NW,9.2,-,N/A,,Overcast,310,2012-11-10 14:55:00
7:35 AM,32.0,32.0,100,29.98,5.0,NW,13.8,19.6,N/A,Rain,Light Rain,320,2012-11-10 15:35:00
7:55 AM,32.0,32.0,100,29.99,5.0,NW,15.0,-,N/A,Rain,Light Rain,320,2012-11-10 15:55:00
8:15 AM,32.0,32.0,100,30.00,7.0,NW,15.0,-,N/A,,Overcast,310,2012-11-10 16:15:00
8:35 AM,32.0,32.0,100,30.01,8.0,NW,17.3,20.7,N/A,,Mostly Cloudy,320,2012-11-10 16:35:00
8:55 AM,33.8,32.0,93,30.01,8.0,NW,18.4,21.9,N/A,,Mostly Cloudy,320,2012-11-10 16:55:00
9:15 AM,35.6,32.0,87,30.02,10.0,NW,17.3,20.7,N/A,,Mostly Cloudy,320,2012-11-10 17:15:00
9:35 AM,35.6,30.2,81,30.03,10.0,NW,17.3,21.9,N/A,,Mostly Cloudy,320,2012-11-10 17:35:00
9:55 AM,37.4,30.2,75,30.03,10.0,NW,18.4,21.9,N/A,,Mostly Cloudy,320,2012-11-10 17:55:00
10:15 AM,39.2,28.4,65,30.04,10.0,NW,18.4,26.5,N/A,,Mostly Cloudy,310,2012-11-10 18:15:00
10:35 AM,37.4,26.6,65,30.04,10.0,NW,16.1,24.2,N/A,Rain,Light Rain,320,2012-11-10 18:35:00
10:55 AM,35.6,26.6,70,30.05,10.0,NW,20.7,28.8,N/A,,Overcast,310,2012-11-10 18:55:00
11:15 AM,37.4,28.4,70,30.04,10.0,NW,19.6,25.3,N/A,,Overcast,310,2012-11-10 19:15:00
11:35 AM,37.4,28.4,70,30.04,10.0,NW,17.3,23.0,N/A,,Mostly Cloudy,320,2012-11-10 19:35:00
11:55 AM,37.4,26.6,65,30.03,10.0,NW,17.3,24.2,N/A,,Overcast,310,2012-11-10 19:55:00
12:15 PM,37.4,24.8,60,30.03,10.0,WNW,16.1,24.2,N/A,Rain,Light Rain,300,2012-11-10 20:15:00
12:35 PM,37.4,26.6,65,30.03,10.0,NNW,15.0,-,N/A,Rain,Light Rain,330,2012-11-10 20:35:00
12:55 PM,37.4,26.6,65,30.02,10.0,NW,15.0,23.0,N/A,,Overcast,310,2012-11-10 20:55:00
1:15 PM,39.2,23.0,52,30.02,10.0,WNW,18.4,29.9,N/A,,Overcast,290,2012-11-10 21:15:00
1:35 PM,37.4,23.0,56,30.02,10.0,WNW,19.6,29.9,N/A,,Overcast,300,2012-11-10 21:35:00
1:55 PM,37.4,24.8,60,30.02,10.0,NW,17.3,31.1,N/A,,Mostly Cloudy,310,2012-11-10 21:55:00
2:15 PM,-9999,-9999,N/A,30.02,10.0,North,-9999.0,-,N/A,,Unknown,0,2012-11-10 22:15:00
2:35 PM,39.2,23.0,52,30.02,10.0,WNW,24.2,28.8,N/A,,Unknown,300,2012-11-10 22:35:00
2:55 PM,-9999,-9999,N/A,-9999,-9999.0,North,-9999.0,-,N/A,,Unknown,0,2012-11-10 22:55:00
3:15 PM,39.2,24.8,56,30.02,10.0,WNW,21.9,32.2,N/A,,Unknown,300,2012-11-10 23:15:00
3:35 PM,37.4,24.8,60,30.03,10.0,WNW,19.6,28.8,N/A,,Mostly Cloudy,300,2012-11-10 23:35:00
3:55 PM,35.6,26.6,70,30.03,10.0,WNW,19.6,-,N/A,,Scattered Clouds,290,2012-11-10 23:55:00
4:15 PM,35.6,24.8,65,30.03,10.0,WNW,17.3,24.2,N/A,,Partly Cloudy,290,2012-11-11 00:15:00
4:35 PM,35.6,24.8,65,30.04,10.0,WNW,16.1,23.0,N/A,,Scattered Clouds,290,2012-11-11 00:35:00
4:55 PM,35.6,24.8,65,30.04,10.0,WNW,18.4,28.8,N/A,,Partly Cloudy,290,2012-11-11 00:55:00
5:15 PM,35.6,23.0,60,30.05,10.0,WNW,18.4,26.5,N/A,,Partly Cloudy,290,2012-11-11 01:15:00
5:35 PM,35.6,23.0,60,30.06,10.0,WNW,17.3,24.2,N/A,,Partly Cloudy,290,2012-11-11 01:35:00
5:55 PM,33.8,21.2,60,30.07,10.0,WNW,18.4,23.0,N/A,,Clear,290,2012-11-11 01:55:00
6:15 PM,33.8,21.2,60,30.08,10.0,WNW,13.8,24.2,N/A,,Clear,290,2012-11-11 02:15:00
6:35 PM,33.8,23.0,65,30.09,10.0,NW,12.7,-,N/A,,Clear,310,2012-11-11 02:35:00
6:55 PM,32.0,23.0,69,30.08,10.0,NW,13.8,-,N/A,,Clear,310,2012-11-11 02:55:00
7:35 PM,32.0,23.0,69,30.10,10.0,NW,10.4,-,N/A,,Clear,310,2012-11-11 03:35:00
8:15 PM,32.0,23.0,69,30.11,10.0,WNW,12.7,-,N/A,,Clear,290,2012-11-11 04:15:00
8:35 PM,32.0,23.0,69,30.11,10.0,WNW,11.5,-,N/A,,Clear,290,2012-11-11 04:35:00
8:55 PM,32.0,21.2,64,30.13,10.0,WNW,8.1,-,N/A,,Clear,290,2012-11-11 04:55:00
9:15 PM,28.4,21.2,74,30.14,10.0,West,9.2,-,N/A,,Clear,280,2012-11-11 05:15:00
9:35 PM,28.4,19.4,69,30.14,10.0,West,10.4,-,N/A,,Clear,270,2012-11-11 05:35:00
9:55 PM,26.6,17.6,69,30.14,10.0,West,6.9,-,N/A,,Clear,280,2012-11-11 05:55:00
10:15 PM,28.4,15.8,59,30.15,10.0,WNW,5.8,-,N/A,,Clear,300,2012-11-11 06:15:00
10:35 PM,28.4,17.6,64,30.15,10.0,NW,8.1,-,N/A,,Clear,310,2012-11-11 06:35:00
10:55 PM,28.4,19.4,69,30.16,10.0,WNW,8.1,-,N/A,,Clear,300,2012-11-11 06:55:00
11:15 PM,26.6,19.4,74,30.16,10.0,NNW,3.5,-,N/A,,Clear,330,2012-11-11 07:15:00
11:35 PM,28.4,21.2,74,30.17,10.0,Calm,Calm,-,N/A,,Clear,0,2012-11-11 07:35:00
11:55 PM,24.8,17.6,74,30.17,10.0,North,4.6,-,N/A,,Clear,10,2012-11-11 07:55:00